This is the latest recevied weather packets stored in our database for station/object K5RWS. If no packets are shown the sender has not sent any weather packets the latest 10 day(s).
| Time | Temp. | Humidity | Pressure | Rain* | Wind** | Luminosity | Snow |
|---|---|---|---|---|---|---|---|
| 1777856523 | 21.11° C | 25% | 1016.2 hPa | 0 mm | - | 27 W/m² | - |
| 1777856220 | 21.67° C | 25% | 1016 hPa | 0 mm | - | 32 W/m² | - |
| 1777855917 | 21.67° C | 24% | 1016 hPa | 0 mm | - | 41 W/m² | - |
| 1777855615 | 21.67° C | 24% | 1016.2 hPa | 0 mm | - | 46 W/m² | - |
| 1777855311 | 22.22° C | 23% | 1016.2 hPa | 0 mm | - | 48 W/m² | - |
| 1777855008 | 21.67° C | 22% | 1016.1 hPa | 0 mm | - | 47 W/m² | - |
| 1777854705 | 22.22° C | 22% | 1016.1 hPa | 0 mm | - | 59 W/m² | - |
| 1777854401 | 21.67° C | 22% | 1016.2 hPa | 0 mm | - | 75 W/m² | - |
| 1777854099 | 21.67° C | 21% | 1016.3 hPa | 0 mm | - | 87 W/m² | - |
| 1777853797 | 22.22° C | 21% | 1016.2 hPa | 0 mm | - | 105 W/m² | - |
| 1777853492 | 22.22° C | 22% | 1016.3 hPa | 0 mm | - | 118 W/m² | - |
| 1777853190 | 21.67° C | 21% | 1016.4 hPa | 0 mm | - | 131 W/m² | - |
| 1777852887 | 22.22° C | 21% | 1016.4 hPa | 0 mm | - | 151 W/m² | - |
| 1777852585 | 22.22° C | 21% | 1016.4 hPa | 0 mm | - | 172 W/m² | - |
| 1777852281 | 22.22° C | 22% | 1016.6 hPa | 0 mm | - | 194 W/m² | - |
| 1777851980 | 22.22° C | 21% | 1016.6 hPa | 0 mm | - | 205 W/m² | - |
| 1777851678 | 22.22° C | 21% | 1016.6 hPa | 0 mm | - | 221 W/m² | - |
| 1777851374 | 22.22° C | 21% | 1016.6 hPa | 0 mm | - | 235 W/m² | - |
| 1777851070 | 22.78° C | 21% | 1016.4 hPa | 0 mm | - | 249 W/m² | - |
| 1777850767 | 22.22° C | 21% | 1016.6 hPa | 0 mm | - | 262 W/m² | - |
| 1777850464 | 22.78° C | 22% | 1016.7 hPa | 0 mm | - | 251 W/m² | - |
| 1777850162 | 22.78° C | 20% | 1016.8 hPa | 0 mm | - | 294 W/m² | - |
| 1777849859 | 22.78° C | 22% | 1016.8 hPa | 0 mm | - | 309 W/m² | - |
| 1777849555 | 22.22° C | 22% | 1016.9 hPa | 0 mm | - | 324 W/m² | - |
| 1777849253 | 22.22° C | 23% | 1017.2 hPa | 0 mm | - | 339 W/m² | - |
* Rain latest hour (hover to see other rain measurements)
** Current wind speed in m/s (hover to see current wind gust speed)